Time,TemperatureF,DewpointF,PressureIn,WindDirection,WindDirectionDegrees,WindSpeedMPH,WindSpeedGustMPH,Humidity,HourlyPrecipIn,Conditions,Clouds,dailyrainin,SoftwareType,DateUTC
2013-12-01 00:01:00,57.1,55.7,30.23,NE,34,1.0,1.0,95,0.00,,,0.00,Wunderground v.1.15,2013-12-01 05:01:00,
2013-12-01 00:05:00,57.1,55.7,30.23,ENE,59,1.0,2.0,95,0.00,,,0.00,Wunderground v.1.15,2013-12-01 05:05:00,
2013-12-01 00:10:00,57.1,55.7,30.23,NE,37,2.0,2.0,95,0.00,,,0.00,Wunderground v.1.15,2013-12-01 05:10:00,
2013-12-01 00:15:00,57.1,55.7,30.23,NE,48,2.0,3.0,95,0.00,,,0.00,Wunderground v.1.15,2013-12-01 05:15:00,
2013-12-01 00:20:00,57.1,55.7,30.23,NE,40,2.0,3.0,95,0.00,,,0.00,Wunderground v.1.15,2013-12-01 05:20:00,
2013-12-01 00:25:00,57.1,55.7,30.23,NNE,27,2.0,2.0,95,0.00,,,0.00,Wunderground v.1.15,2013-12-01 05:25:00,
2013-12-01 00:30:00,57.1,56.0,30.23,NNE,20,2.0,2.0,96,0.00,,,0.00,Wunderground v.1.15,2013-12-01 05:30:00,
2013-12-01 00:35:00,57.2,56.1,30.22,NNE,25,2.0,3.0,96,0.00,,,0.00,Wunderground v.1.15,2013-12-01 05:35:00,
2013-12-01 00:41:00,57.2,56.1,30.22,NNE,25,1.0,3.0,96,0.00,,,0.00,Wunderground v.1.15,2013-12-01 05:41:00,
2013-12-01 00:45:00,57.1,56.0,30.22,ENE,69,1.0,2.0,96,0.00,,,0.00,Wunderground v.1.15,2013-12-01 05:45:00,
2013-12-01 00:55:00,57.1,56.0,30.21,NE,37,2.0,2.0,96,0.00,,,0.00,Wunderground v.1.15,2013-12-01 05:55:00,
2013-12-01 01:00:00,57.1,56.0,30.20,NNE,28,2.0,3.0,96,0.00,,,0.00,Wunderground v.1.15,2013-12-01 06:00:00,
2013-12-01 01:05:00,57.1,56.0,30.20,NE,54,2.0,3.0,96,0.00,,,0.00,Wunderground v.1.15,2013-12-01 06:05:00,
2013-12-01 01:11:00,57.1,56.0,30.20,NE,49,2.0,2.0,96,0.00,,,0.00,Wunderground v.1.15,2013-12-01 06:11:00,
2013-12-01 01:20:00,57.1,56.0,30.20,NNE,32,2.0,2.0,96,0.00,,,0.00,Wunderground v.1.15,2013-12-01 06:20:00,
2013-12-01 01:25:00,57.1,56.0,30.20,ENE,62,2.0,3.0,96,0.00,,,0.00,Wunderground v.1.15,2013-12-01 06:25:00,
2013-12-01 01:30:00,57.1,56.0,30.20,NE,50,2.0,2.0,96,0.00,,,0.00,Wunderground v.1.15,2013-12-01 06:30:00,
2013-12-01 01:35:00,57.2,56.1,30.20,NE,41,2.0,2.0,96,0.00,,,0.00,Wunderground v.1.15,2013-12-01 06:35:00,
2013-12-01 01:40:00,57.2,56.1,30.20,North,6,3.0,3.0,96,0.00,,,0.00,Wunderground v.1.15,2013-12-01 06:40:00,
2013-12-01 01:45:00,57.1,56.0,30.21,NNE,32,3.0,3.0,96,0.00,,,0.00,Wunderground v.1.15,2013-12-01 06:45:00,
2013-12-01 01:51:00,57.2,56.1,30.21,NNE,18,2.0,2.0,96,0.00,,,0.00,Wunderground v.1.15,2013-12-01 06:51:00,
2013-12-01 01:55:00,57.2,56.1,30.21,North,4,2.0,2.0,96,0.00,,,0.00,Wunderground v.1.15,2013-12-01 06:55:00,
2013-12-01 02:00:00,57.2,56.1,30.21,North,351,2.0,2.0,96,0.00,,,0.00,Wunderground v.1.15,2013-12-01 07:00:00,
2013-12-01 02:06:00,57.2,56.1,30.20,NE,39,2.0,2.0,96,0.00,,,0.00,Wunderground v.1.15,2013-12-01 07:06:00,
2013-12-01 02:15:00,57.3,56.2,30.20,NNE,12,1.0,2.0,96,0.00,,,0.00,Wunderground v.1.15,2013-12-01 07:15:00,
2013-12-01 02:20:00,57.3,56.2,30.20,NNE,29,2.0,3.0,96,0.00,,,0.00,Wunderground v.1.15,2013-12-01 07:20:00,
2013-12-01 02:25:00,57.3,56.2,30.19,NNE,29,2.0,3.0,96,0.00,,,0.00,Wunderground v.1.15,2013-12-01 07:25:00,
2013-12-01 02:30:00,57.4,56.3,30.19,NNE,19,2.0,2.0,96,0.00,,,0.00,Wunderground v.1.15,2013-12-01 07:30:00,
2013-12-01 02:35:00,57.4,56.3,30.19,NNE,20,2.0,2.0,96,0.00,,,0.00,Wunderground v.1.15,2013-12-01 07:35:00,
2013-12-01 02:50:00,57.5,56.4,30.19,NNE,18,2.0,4.0,96,0.00,,,0.00,Wunderground v.1.15,2013-12-01 07:50:00,
2013-12-01 02:55:00,57.5,56.4,30.19,NE,54,1.0,3.0,96,0.00,,,0.00,Wunderground v.1.15,2013-12-01 07:55:00,
2013-12-01 03:10:00,57.6,56.5,30.19,NE,37,2.0,2.0,96,0.00,,,0.00,Wunderground v.1.15,2013-12-01 08:10:00,
2013-12-01 03:15:00,57.7,56.6,30.19,NNE,32,2.0,4.0,96,0.00,,,0.00,Wunderground v.1.15,2013-12-01 08:15:00,
2013-12-01 03:20:00,57.7,56.6,30.19,NNE,26,2.0,2.0,96,0.00,,,0.00,Wunderground v.1.15,2013-12-01 08:20:00,
2013-12-01 03:30:00,57.8,56.7,30.19,NE,42,1.0,3.0,96,0.00,,,0.00,Wunderground v.1.15,2013-12-01 08:30:00,
2013-12-01 03:35:00,57.8,56.7,30.19,NE,44,2.0,3.0,96,0.00,,,0.00,Wunderground v.1.15,2013-12-01 08:35:00,
2013-12-01 03:45:00,57.8,56.7,30.19,NNE,24,2.0,2.0,96,0.00,,,0.00,Wunderground v.1.15,2013-12-01 08:45:00,
2013-12-01 03:50:00,57.8,56.7,30.19,NNE,16,3.0,3.0,96,0.00,,,0.00,Wunderground v.1.15,2013-12-01 08:50:00,
2013-12-01 03:55:00,57.8,56.7,30.19,NNW,329,3.0,3.0,96,0.00,,,0.00,Wunderground v.1.15,2013-12-01 08:55:00,
2013-12-01 04:05:00,57.7,56.6,30.18,NNE,33,3.0,3.0,96,0.00,,,0.00,Wunderground v.1.15,2013-12-01 09:05:00,
2013-12-01 04:10:00,57.7,56.6,30.18,ENE,64,2.0,3.0,96,0.00,,,0.00,Wunderground v.1.15,2013-12-01 09:10:00,
2013-12-01 04:15:00,57.7,56.6,30.18,NNE,27,2.0,5.0,96,0.00,,,0.00,Wunderground v.1.15,2013-12-01 09:15:00,
2013-12-01 04:20:00,57.6,56.5,30.18,NE,37,2.0,5.0,96,0.00,,,0.00,Wunderground v.1.15,2013-12-01 09:20:00,
2013-12-01 04:30:00,57.6,56.5,30.18,North,4,3.0,3.0,96,0.00,,,0.00,Wunderground v.1.15,2013-12-01 09:30:00,
2013-12-01 04:40:00,57.5,56.4,30.18,NE,41,2.0,2.0,96,0.00,,,0.00,Wunderground v.1.15,2013-12-01 09:40:00,
2013-12-01 04:45:00,57.5,56.4,30.18,NNE,33,2.0,2.0,96,0.00,,,0.00,Wunderground v.1.15,2013-12-01 09:45:00,
2013-12-01 04:55:00,57.5,56.4,30.18,NNE,27,3.0,4.0,96,0.00,,,0.00,Wunderground v.1.15,2013-12-01 09:55:00,
2013-12-01 05:00:00,57.5,56.4,30.18,North,3,3.0,3.0,96,0.00,,,0.00,Wunderground v.1.15,2013-12-01 10:00:00,
2013-12-01 05:05:00,57.5,56.4,30.19,North,356,2.0,3.0,96,0.00,,,0.00,Wunderground v.1.15,2013-12-01 10:05:00,
2013-12-01 05:10:00,57.5,56.4,30.19,North,5,3.0,3.0,96,0.00,,,0.00,Wunderground v.1.15,2013-12-01 10:10:00,
2013-12-01 05:25:00,57.4,56.3,30.19,North,10,2.0,2.0,96,0.00,,,0.00,Wunderground v.1.15,2013-12-01 10:25:00,
2013-12-01 05:30:00,57.5,56.4,30.19,NNE,31,2.0,2.0,96,0.00,,,0.00,Wunderground v.1.15,2013-12-01 10:30:00,
2013-12-01 05:35:00,57.5,56.4,30.19,North,356,2.0,2.0,96,0.00,,,0.00,Wunderground v.1.15,2013-12-01 10:35:00,
2013-12-01 05:45:00,57.5,56.4,30.19,NNE,30,3.0,3.0,96,0.00,,,0.00,Wunderground v.1.15,2013-12-01 10:45:00,
2013-12-01 05:50:00,57.5,56.4,30.19,NE,37,3.0,4.0,96,0.00,,,0.00,Wunderground v.1.15,2013-12-01 10:50:00,
2013-12-01 05:55:00,57.5,56.4,30.19,NNE,20,3.0,3.0,96,0.00,,,0.00,Wunderground v.1.15,2013-12-01 10:55:00,
2013-12-01 06:00:00,57.5,56.4,30.19,NNE,22,2.0,3.0,96,0.00,,,0.00,Wunderground v.1.15,2013-12-01 11:00:00,
2013-12-01 06:05:00,57.5,56.4,30.19,NNE,22,2.0,3.0,96,0.00,,,0.00,Wunderground v.1.15,2013-12-01 11:05:00,
2013-12-01 06:15:00,57.5,56.4,30.19,North,7,1.0,1.0,96,0.00,,,0.00,Wunderground v.1.15,2013-12-01 11:15:00,
2013-12-01 06:20:00,57.5,56.4,30.19,North,7,1.0,2.0,96,0.00,,,0.00,Wunderground v.1.15,2013-12-01 11:20:00,
2013-12-01 06:25:00,57.6,56.5,30.19,North,2,1.0,2.0,96,0.00,,,0.00,Wunderground v.1.15,2013-12-01 11:25:00,
2013-12-01 06:35:00,57.6,56.5,30.19,NNE,26,2.0,2.0,96,0.00,,,0.00,Wunderground v.1.15,2013-12-01 11:35:00,
2013-12-01 06:40:00,57.6,56.5,30.19,NNW,339,2.0,2.0,96,0.00,,,0.00,Wunderground v.1.15,2013-12-01 11:40:00,
2013-12-01 06:45:00,57.6,56.5,30.19,NNW,339,1.0,2.0,96,0.00,,,0.00,Wunderground v.1.15,2013-12-01 11:45:00,
2013-12-01 06:50:00,57.6,56.5,30.19,North,6,1.0,1.0,96,0.00,,,0.00,Wunderground v.1.15,2013-12-01 11:50:00,
2013-12-01 06:55:00,57.5,56.4,30.19,North,7,1.0,3.0,96,0.00,,,0.00,Wunderground v.1.15,2013-12-01 11:55:00,
2013-12-01 07:05:00,57.5,56.4,30.20,NNE,31,2.0,2.0,96,0.00,,,0.00,Wunderground v.1.15,2013-12-01 12:05:00,
2013-12-01 07:10:00,57.5,56.4,30.20,NNE,33,2.0,3.0,96,0.00,,,0.00,Wunderground v.1.15,2013-12-01 12:10:00,
2013-12-01 07:15:00,57.5,56.4,30.20,NNE,19,2.0,4.0,96,0.00,,,0.00,Wunderground v.1.15,2013-12-01 12:15:00,
2013-12-01 07:25:00,57.4,56.3,30.20,NE,35,2.0,2.0,96,0.00,,,0.00,Wunderground v.1.15,2013-12-01 12:25:00,
2013-12-01 07:30:00,57.4,56.3,30.20,NNE,24,2.0,3.0,96,0.00,,,0.00,Wunderground v.1.15,2013-12-01 12:30:00,
2013-12-01 07:35:00,57.3,56.2,30.20,NNE,23,3.0,3.0,96,0.00,,,0.00,Wunderground v.1.15,2013-12-01 12:35:00,
2013-12-01 07:45:00,57.3,56.2,30.20,NE,53,3.0,3.0,96,0.00,,,0.00,Wunderground v.1.15,2013-12-01 12:45:00,
2013-12-01 07:50:00,57.3,56.2,30.20,NNE,19,3.0,8.0,96,0.00,,,0.00,Wunderground v.1.15,2013-12-01 12:50:00,
2013-12-01 07:55:00,57.3,56.2,30.20,North,4,3.0,8.0,96,0.00,,,0.00,Wunderground v.1.15,2013-12-01 12:55:00,
2013-12-01 08:00:00,57.3,56.2,30.20,NNE,31,2.0,2.0,96,0.00,,,0.00,Wunderground v.1.15,2013-12-01 13:00:00,
2013-12-01 08:05:00,57.3,56.2,30.21,NE,37,2.0,2.0,96,0.00,,,0.00,Wunderground v.1.15,2013-12-01 13:05:00,
2013-12-01 08:10:00,57.4,56.3,30.21,North,9,2.0,2.0,96,0.00,,,0.00,Wunderground v.1.15,2013-12-01 13:10:00,
2013-12-01 08:20:00,57.3,56.2,30.21,North,356,2.0,2.0,96,0.00,,,0.00,Wunderground v.1.15,2013-12-01 13:20:00,
2013-12-01 08:25:00,57.3,56.2,30.21,North,351,3.0,3.0,96,0.00,,,0.00,Wunderground v.1.15,2013-12-01 13:25:00,
2013-12-01 08:30:00,57.3,56.2,30.21,NNE,15,3.0,3.0,96,0.00,,,0.00,Wunderground v.1.15,2013-12-01 13:30:00,
2013-12-01 08:35:00,57.4,56.3,30.21,NNW,346,2.0,8.0,96,0.00,,,0.00,Wunderground v.1.15,2013-12-01 13:35:00,
2013-12-01 08:40:00,57.3,56.2,30.21,NNE,33,3.0,3.0,96,0.00,,,0.00,Wunderground v.1.15,2013-12-01 13:40:00,
2013-12-01 08:50:00,57.5,56.4,30.21,NNE,26,2.0,2.0,96,0.00,,,0.00,Wunderground v.1.15,2013-12-01 13:50:00,
2013-12-01 08:55:00,57.4,56.3,30.21,NNE,27,2.0,3.0,96,0.00,,,0.00,Wunderground v.1.15,2013-12-01 13:55:00,
2013-12-01 09:00:00,57.4,56.3,30.22,ENE,60,2.0,2.0,96,0.00,,,0.00,Wunderground v.1.15,2013-12-01 14:00:00,
2013-12-01 09:10:00,57.6,56.5,30.22,NNE,21,2.0,2.0,96,0.00,,,0.00,Wunderground v.1.15,2013-12-01 14:10:00,
2013-12-01 09:20:00,57.5,56.4,30.22,NW,315,3.0,3.0,96,0.00,,,0.00,Wunderground v.1.15,2013-12-01 14:20:00,
2013-12-01 09:25:00,57.3,56.2,30.22,NNW,339,4.0,4.0,96,0.00,,,0.00,Wunderground v.1.15,2013-12-01 14:25:00,
2013-12-01 09:35:00,57.5,56.4,30.23,North,356,2.0,3.0,96,0.00,,,0.00,Wunderground v.1.15,2013-12-01 14:35:00,
2013-12-01 09:40:00,57.6,56.5,30.23,NE,36,2.0,2.0,96,0.00,,,0.00,Wunderground v.1.15,2013-12-01 14:40:00,
2013-12-01 09:45:00,57.7,56.9,30.23,North,351,2.0,3.0,97,0.00,,,0.00,Wunderground v.1.15,2013-12-01 14:45:00,
2013-12-01 09:50:00,57.8,57.0,30.23,North,2,2.0,2.0,97,0.00,,,0.00,Wunderground v.1.15,2013-12-01 14:50:00,
2013-12-01 09:55:00,57.8,57.0,30.23,NE,34,2.0,2.0,97,0.00,,,0.00,Wunderground v.1.15,2013-12-01 14:55:00,
2013-12-01 10:00:00,58.1,57.0,30.23,North,351,2.0,2.0,96,0.00,,,0.00,Wunderground v.1.15,2013-12-01 15:00:00,
2013-12-01 10:10:00,58.0,56.9,30.22,NE,37,3.0,3.0,96,0.00,,,0.00,Wunderground v.1.15,2013-12-01 15:10:00,
2013-12-01 10:15:00,58.1,57.0,30.22,North,9,3.0,3.0,96,0.00,,,0.00,Wunderground v.1.15,2013-12-01 15:15:00,
2013-12-01 10:20:00,58.2,57.1,30.22,NNE,14,3.0,3.0,96,0.00,,,0.00,Wunderground v.1.15,2013-12-01 15:20:00,
2013-12-01 10:25:00,58.4,57.6,30.22,NE,42,3.0,3.0,97,0.00,,,0.00,Wunderground v.1.15,2013-12-01 15:25:00,
2013-12-01 10:35:00,58.9,58.1,30.21,NE,42,1.0,2.0,97,0.00,,,0.00,Wunderground v.1.15,2013-12-01 15:35:00,
2013-12-01 10:40:00,59.2,58.3,30.21,NE,42,0.0,0.0,97,0.00,,,0.00,Wunderground v.1.15,2013-12-01 15:40:00,
2013-12-01 10:45:00,59.3,58.4,30.20,East,89,1.0,2.0,97,0.00,,,0.00,Wunderground v.1.15,2013-12-01 15:45:00,
2013-12-01 10:55:00,59.4,58.5,30.20,East,89,1.0,2.0,97,0.00,,,0.00,Wunderground v.1.15,2013-12-01 15:55:00,
2013-12-01 11:00:00,59.6,58.7,30.20,East,89,1.0,2.0,97,0.00,,,0.00,Wunderground v.1.15,2013-12-01 16:00:00,
2013-12-01 11:10:00,59.9,59.0,30.19,East,92,1.0,1.0,97,0.00,,,0.00,Wunderground v.1.15,2013-12-01 16:10:00,
2013-12-01 11:15:00,60.3,59.4,30.19,NE,40,1.0,2.0,97,0.00,,,0.00,Wunderground v.1.15,2013-12-01 16:15:00,
2013-12-01 11:20:00,60.5,59.6,30.19,North,351,1.0,3.0,97,0.00,,,0.00,Wunderground v.1.15,2013-12-01 16:20:00,
2013-12-01 11:30:00,60.9,59.8,30.17,NNW,327,1.0,1.0,96,0.00,,,0.00,Wunderground v.1.15,2013-12-01 16:30:00,
2013-12-01 11:35:00,61.3,60.2,30.17,NNW,335,2.0,2.0,96,0.00,,,0.00,Wunderground v.1.15,2013-12-01 16:35:00,
2013-12-01 11:45:00,62.7,61.5,30.17,NNE,18,1.0,1.0,96,0.00,,,0.00,Wunderground v.1.15,2013-12-01 16:45:00,
2013-12-01 11:50:00,63.1,61.3,30.17,NE,45,1.0,1.0,94,0.00,,,0.00,Wunderground v.1.15,2013-12-01 16:50:00,
2013-12-01 11:55:00,63.0,61.2,30.17,NE,36,2.0,2.0,94,0.00,,,0.00,Wunderground v.1.15,2013-12-01 16:55:00,
2013-12-01 12:00:00,63.0,60.9,30.17,East,95,2.0,2.0,93,0.00,,,0.00,Wunderground v.1.15,2013-12-01 17:00:00,
2013-12-01 12:05:00,63.4,61.3,30.16,North,2,3.0,3.0,93,0.00,,,0.00,Wunderground v.1.15,2013-12-01 17:05:00,
2013-12-01 12:15:00,64.7,62.0,30.15,South,185,2.0,3.0,91,0.00,,,0.00,Wunderground v.1.15,2013-12-01 17:15:00,
2013-12-01 12:25:00,65.5,62.5,30.14,North,8,2.0,2.0,90,0.00,,,0.00,Wunderground v.1.15,2013-12-01 17:25:00,
2013-12-01 12:30:00,66.1,62.4,30.14,ENE,60,2.0,2.0,88,0.00,,,0.00,Wunderground v.1.15,2013-12-01 17:30:00,
2013-12-01 12:35:00,66.4,62.7,30.14,NNE,30,3.0,3.0,88,0.00,,,0.00,Wunderground v.1.15,2013-12-01 17:35:00,
2013-12-01 12:40:00,66.7,62.7,30.14,NNE,29,2.0,3.0,87,0.00,,,0.00,Wunderground v.1.15,2013-12-01 17:40:00,
2013-12-01 12:50:00,67.7,63.4,30.13,North,4,3.0,3.0,86,0.00,,,0.00,Wunderground v.1.15,2013-12-01 17:50:00,
2013-12-01 12:55:00,68.1,63.4,30.12,North,5,2.0,3.0,85,0.00,,,0.00,Wunderground v.1.15,2013-12-01 17:55:00,
2013-12-01 13:00:00,68.7,64.0,30.12,North,4,2.0,2.0,85,0.00,,,0.00,Wunderground v.1.15,2013-12-01 18:00:00,
2013-12-01 13:10:00,69.4,64.0,30.11,NNE,23,2.0,2.0,83,0.00,,,0.00,Wunderground v.1.15,2013-12-01 18:10:00,
2013-12-01 13:15:00,69.7,64.3,30.11,NNE,23,2.0,2.0,83,0.00,,,0.00,Wunderground v.1.15,2013-12-01 18:15:00,
2013-12-01 13:20:00,70.1,64.7,30.11,ENE,61,1.0,4.0,83,0.00,,,0.00,Wunderground v.1.15,2013-12-01 18:20:00,
2013-12-01 13:25:00,70.7,64.6,30.11,NNE,21,2.0,4.0,81,0.00,,,0.00,Wunderground v.1.15,2013-12-01 18:25:00,
2013-12-01 13:30:00,71.2,64.7,30.11,NW,311,2.0,3.0,80,0.00,,,0.00,Wunderground v.1.15,2013-12-01 18:30:00,
2013-12-01 13:40:00,71.4,64.9,30.10,NNE,31,2.0,6.0,80,0.00,,,0.00,Wunderground v.1.15,2013-12-01 18:40:00,
2013-12-01 13:45:00,71.5,64.6,30.10,NNE,22,3.0,6.0,79,0.00,,,0.00,Wunderground v.1.15,2013-12-01 18:45:00,
2013-12-01 13:50:00,71.6,64.4,30.10,NNE,29,3.0,3.0,78,0.00,,,0.00,Wunderground v.1.15,2013-12-01 18:50:00,
2013-12-01 14:00:00,72.0,64.0,30.09,NNE,30,3.0,3.0,76,0.00,,,0.00,Wunderground v.1.15,2013-12-01 19:00:00,
2013-12-01 14:05:00,72.4,64.4,30.09,NNW,346,3.0,3.0,76,0.00,,,0.00,Wunderground v.1.15,2013-12-01 19:05:00,
2013-12-01 14:10:00,72.8,64.4,30.08,NE,46,2.0,2.0,75,0.00,,,0.00,Wunderground v.1.15,2013-12-01 19:10:00,
2013-12-01 14:20:00,73.1,63.5,30.08,North,8,3.0,3.0,72,0.00,,,0.00,Wunderground v.1.15,2013-12-01 19:20:00,
2013-12-01 14:25:00,72.9,63.3,30.08,NW,316,4.0,5.0,72,0.00,,,0.00,Wunderground v.1.15,2013-12-01 19:25:00,
2013-12-01 14:30:00,73.0,63.4,30.08,NNE,22,3.0,5.0,72,0.00,,,0.00,Wunderground v.1.15,2013-12-01 19:30:00,
2013-12-01 14:35:00,73.1,63.1,30.08,NNW,334,3.0,5.0,71,0.00,,,0.00,Wunderground v.1.15,2013-12-01 19:35:00,
2013-12-01 14:45:00,73.5,63.1,30.07,North,351,2.0,2.0,70,0.00,,,0.00,Wunderground v.1.15,2013-12-01 19:45:00,
2013-12-01 14:50:00,73.4,63.4,30.07,NW,314,2.0,2.0,71,0.00,,,0.00,Wunderground v.1.15,2013-12-01 19:50:00,
2013-12-01 14:55:00,73.4,63.0,30.07,NNE,30,2.0,4.0,70,0.00,,,0.00,Wunderground v.1.15,2013-12-01 19:55:00,
2013-12-01 15:00:00,73.3,62.9,30.06,NNE,32,2.0,3.0,70,0.00,,,0.00,Wunderground v.1.15,2013-12-01 20:00:00,
2013-12-01 15:15:00,73.6,63.6,30.06,NNE,17,2.0,3.0,71,0.00,,,0.00,Wunderground v.1.15,2013-12-01 20:15:00,
2013-12-01 15:20:00,73.6,63.2,30.06,NE,56,2.0,2.0,70,0.00,,,0.00,Wunderground v.1.15,2013-12-01 20:20:00,
2013-12-01 15:30:00,73.7,64.1,30.07,NNE,20,1.0,3.0,72,0.00,,,0.00,Wunderground v.1.15,2013-12-01 20:30:00,
2013-12-01 15:35:00,73.7,64.5,30.06,NNE,20,1.0,3.0,73,0.00,,,0.00,Wunderground v.1.15,2013-12-01 20:35:00,
2013-12-01 15:45:00,73.3,64.1,30.06,NE,52,1.0,1.0,73,0.00,,,0.00,Wunderground v.1.15,2013-12-01 20:45:00,
2013-12-01 15:50:00,73.2,64.8,30.06,NE,53,1.0,1.0,75,0.00,,,0.00,Wunderground v.1.15,2013-12-01 20:50:00,
2013-12-01 15:55:00,73.3,64.5,30.06,NNE,31,1.0,1.0,74,0.00,,,0.00,Wunderground v.1.15,2013-12-01 20:55:00,
2013-12-01 16:01:00,73.2,64.0,30.06,East,80,2.0,2.0,73,0.00,,,0.00,Wunderground v.1.15,2013-12-01 21:01:00,
2013-12-01 16:05:00,73.1,63.9,30.06,ENE,69,2.0,2.0,73,0.00,,,0.00,Wunderground v.1.15,2013-12-01 21:05:00,
2013-12-01 16:20:00,73.0,64.2,30.06,East,101,2.0,2.0,74,0.00,,,0.00,Wunderground v.1.15,2013-12-01 21:20:00,
2013-12-01 16:30:00,72.4,63.6,30.06,NE,42,1.0,3.0,74,0.00,,,0.00,Wunderground v.1.15,2013-12-01 21:30:00,
2013-12-01 16:35:00,72.1,63.4,30.07,NE,44,1.0,3.0,74,0.00,,,0.00,Wunderground v.1.15,2013-12-01 21:35:00,
2013-12-01 16:40:00,71.9,63.5,30.06,NE,45,1.0,2.0,75,0.00,,,0.00,Wunderground v.1.15,2013-12-01 21:40:00,
2013-12-01 16:45:00,71.6,63.3,30.06,NE,44,1.0,2.0,75,0.00,,,0.00,Wunderground v.1.15,2013-12-01 21:45:00,
2013-12-01 16:51:00,71.5,63.2,30.06,NE,45,1.0,1.0,75,0.00,,,0.00,Wunderground v.1.15,2013-12-01 21:51:00,
2013-12-01 17:00:00,71.1,63.1,30.06,NE,44,0.0,1.0,76,0.00,,,0.00,Wunderground v.1.15,2013-12-01 22:00:00,
2013-12-01 17:10:00,70.6,63.4,30.06,NE,44,0.0,1.0,78,0.00,,,0.00,Wunderground v.1.15,2013-12-01 22:10:00,
2013-12-01 17:15:00,70.3,63.5,30.06,NE,45,0.0,1.0,79,0.00,,,0.00,Wunderground v.1.15,2013-12-01 22:15:00,
2013-12-01 17:20:00,69.9,63.4,30.05,NE,45,0.0,0.0,80,0.00,,,0.00,Wunderground v.1.15,2013-12-01 22:20:00,
2013-12-01 17:25:00,69.5,63.1,30.05,NE,45,0.0,0.0,80,0.00,,,0.00,Wunderground v.1.15,2013-12-01 22:25:00,
2013-12-01 17:30:00,69.1,63.0,30.06,NE,44,0.0,0.0,81,0.00,,,0.00,Wunderground v.1.15,2013-12-01 22:30:00,
2013-12-01 17:36:00,68.7,63.0,30.05,NE,45,0.0,0.0,82,0.00,,,0.00,Wunderground v.1.15,2013-12-01 22:36:00,
2013-12-01 17:45:00,68.0,63.0,30.05,NE,45,0.0,0.0,84,0.00,,,0.00,Wunderground v.1.15,2013-12-01 22:45:00,
2013-12-01 17:50:00,67.6,62.6,30.05,NE,45,0.0,0.0,84,0.00,,,0.00,Wunderground v.1.15,2013-12-01 22:50:00,
2013-12-01 17:55:00,67.1,62.4,30.05,NE,44,0.0,0.0,85,0.00,,,0.00,Wunderground v.1.15,2013-12-01 22:55:00,
2013-12-01 18:05:00,66.3,62.3,30.06,NE,45,0.0,0.0,87,0.00,,,0.00,Wunderground v.1.15,2013-12-01 23:05:00,
2013-12-01 18:10:00,66.0,62.0,30.06,NE,45,0.0,0.0,87,0.00,,,0.00,Wunderground v.1.15,2013-12-01 23:10:00,
2013-12-01 18:15:00,65.6,61.9,30.06,NE,44,0.0,0.0,88,0.00,,,0.00,Wunderground v.1.15,2013-12-01 23:15:00,
2013-12-01 18:20:00,65.3,61.7,30.06,NE,45,0.0,0.0,88,0.00,,,0.00,Wunderground v.1.15,2013-12-01 23:20:00,
2013-12-01 18:26:00,65.1,61.5,30.05,NE,45,0.0,0.0,88,0.00,,,0.00,Wunderground v.1.15,2013-12-01 23:26:00,
2013-12-01 18:35:00,64.5,61.2,30.06,NE,45,0.0,0.0,89,0.00,,,0.00,Wunderground v.1.15,2013-12-01 23:35:00,
2013-12-01 18:40:00,64.2,60.9,30.06,NE,44,0.0,0.0,89,0.00,,,0.00,Wunderground v.1.15,2013-12-01 23:40:00,
2013-12-01 18:46:00,64.0,60.7,30.06,NE,44,0.0,0.0,89,0.00,,,0.00,Wunderground v.1.15,2013-12-01 23:46:00,
2013-12-01 18:55:00,63.4,60.4,30.05,NE,46,0.0,0.0,90,0.00,,,0.00,Wunderground v.1.15,2013-12-01 23:55:00,
2013-12-01 19:00:00,63.2,60.5,30.05,NE,44,0.0,0.0,91,0.00,,,0.00,Wunderground v.1.15,2013-12-02 00:00:00,
2013-12-01 19:05:00,62.9,60.2,30.05,NE,44,0.0,0.0,91,0.00,,,0.00,Wunderground v.1.15,2013-12-02 00:05:00,
2013-12-01 19:10:00,62.7,60.0,30.05,NE,45,0.0,0.0,91,0.00,,,0.00,Wunderground v.1.15,2013-12-02 00:10:00,
2013-12-01 19:20:00,62.3,59.9,30.05,NE,45,0.0,0.0,92,0.00,,,0.00,Wunderground v.1.15,2013-12-02 00:20:00,
2013-12-01 19:25:00,62.1,59.7,30.05,NE,44,0.0,0.0,92,0.00,,,0.00,Wunderground v.1.15,2013-12-02 00:25:00,
2013-12-01 19:31:00,61.8,59.5,30.05,NE,45,0.0,0.0,92,0.00,,,0.00,Wunderground v.1.15,2013-12-02 00:31:00,
2013-12-01 19:40:00,61.2,58.9,30.05,NE,45,0.0,1.0,92,0.00,,,0.00,Wunderground v.1.15,2013-12-02 00:40:00,
2013-12-01 19:45:00,61.3,59.3,30.05,NE,45,0.0,1.0,93,0.00,,,0.00,Wunderground v.1.15,2013-12-02 00:45:00,
2013-12-01 19:50:00,61.3,59.3,30.05,NE,45,0.0,1.0,93,0.00,,,0.00,Wunderground v.1.15,2013-12-02 00:50:00,
2013-12-01 20:00:00,61.0,59.0,30.05,NE,44,0.0,0.0,93,0.00,,,0.00,Wunderground v.1.15,2013-12-02 01:00:00,
2013-12-01 20:05:00,60.9,58.9,30.06,NE,44,0.0,0.0,93,0.00,,,0.00,Wunderground v.1.15,2013-12-02 01:05:00,
2013-12-01 20:10:00,60.8,58.8,30.05,NE,44,0.0,0.0,93,0.00,,,0.00,Wunderground v.1.15,2013-12-02 01:10:00,
2013-12-01 20:15:00,60.7,58.7,30.05,NE,44,0.0,0.0,93,0.00,,,0.00,Wunderground v.1.15,2013-12-02 01:15:00,
2013-12-01 20:20:00,60.4,58.4,30.06,NE,45,0.0,0.0,93,0.00,,,0.00,Wunderground v.1.15,2013-12-02 01:20:00,
2013-12-01 20:26:00,60.2,58.2,30.06,NE,44,0.0,1.0,93,0.00,,,0.00,Wunderground v.1.15,2013-12-02 01:26:00,
2013-12-01 20:35:00,59.8,58.1,30.05,NE,45,0.0,0.0,94,0.00,,,0.00,Wunderground v.1.15,2013-12-02 01:35:00,
2013-12-01 20:41:00,59.7,58.0,30.05,NE,45,0.0,0.0,94,0.00,,,0.00,Wunderground v.1.15,2013-12-02 01:41:00,
2013-12-01 20:50:00,59.4,57.7,30.05,NE,45,0.0,0.0,94,0.00,,,0.00,Wunderground v.1.15,2013-12-02 01:50:00,
2013-12-01 21:00:00,59.2,57.5,30.05,NE,45,0.0,0.0,94,0.00,,,0.00,Wunderground v.1.15,2013-12-02 02:00:00,
2013-12-01 21:05:00,59.1,57.4,30.05,NE,44,0.0,0.0,94,0.00,,,0.00,Wunderground v.1.15,2013-12-02 02:05:00,
2013-12-01 21:10:00,58.9,57.2,30.05,NE,45,0.0,0.0,94,0.00,,,0.00,Wunderground v.1.15,2013-12-02 02:10:00,
2013-12-01 21:15:00,58.9,57.2,30.05,NE,45,0.0,0.0,94,0.00,,,0.00,Wunderground v.1.15,2013-12-02 02:15:00,
2013-12-01 21:20:00,58.7,57.0,30.05,NE,45,0.0,0.0,94,0.00,,,0.00,Wunderground v.1.15,2013-12-02 02:20:00,
2013-12-01 21:30:00,58.5,57.1,30.05,NE,44,0.0,0.0,95,0.00,,,0.00,Wunderground v.1.15,2013-12-02 02:30:00,
2013-12-01 21:35:00,58.4,56.7,30.04,NE,44,0.0,0.0,94,0.00,,,0.00,Wunderground v.1.15,2013-12-02 02:35:00,
2013-12-01 21:40:00,58.2,56.5,30.04,NE,45,0.0,0.0,94,0.00,,,0.00,Wunderground v.1.15,2013-12-02 02:40:00,
2013-12-01 21:45:00,58.2,56.8,30.04,NE,44,0.0,0.0,95,0.00,,,0.00,Wunderground v.1.15,2013-12-02 02:45:00,
2013-12-01 21:50:00,58.4,57.0,30.03,NE,45,0.0,0.0,95,0.00,,,0.00,Wunderground v.1.15,2013-12-02 02:50:00,
2013-12-01 22:00:00,58.2,56.8,30.03,NE,45,0.0,0.0,95,0.00,,,0.00,Wunderground v.1.15,2013-12-02 03:00:00,
2013-12-01 22:05:00,58.0,56.6,30.03,NE,45,0.0,0.0,95,0.00,,,0.00,Wunderground v.1.15,2013-12-02 03:05:00,
2013-12-01 22:10:00,57.7,56.0,30.03,NE,45,0.0,1.0,94,0.00,,,0.00,Wunderground v.1.15,2013-12-02 03:10:00,
2013-12-01 22:15:00,57.5,56.1,30.02,NE,45,0.0,1.0,95,0.00,,,0.00,Wunderground v.1.15,2013-12-02 03:15:00,
2013-12-01 22:20:00,57.4,56.0,30.02,NE,44,0.0,0.0,95,0.00,,,0.00,Wunderground v.1.15,2013-12-02 03:20:00,
2013-12-01 22:25:00,57.3,55.9,30.02,NE,44,0.0,0.0,95,0.00,,,0.00,Wunderground v.1.15,2013-12-02 03:25:00,
2013-12-01 22:31:00,57.2,55.8,30.02,NE,44,0.0,0.0,95,0.00,,,0.00,Wunderground v.1.15,2013-12-02 03:31:00,
2013-12-01 22:40:00,57.2,55.8,30.02,NE,44,0.0,0.0,95,0.00,,,0.00,Wunderground v.1.15,2013-12-02 03:40:00,
2013-12-01 22:45:00,57.2,55.8,30.02,NE,44,0.0,0.0,95,0.00,,,0.00,Wunderground v.1.15,2013-12-02 03:45:00,
2013-12-01 22:50:00,57.2,55.8,30.02,NE,44,0.0,0.0,95,0.00,,,0.00,Wunderground v.1.15,2013-12-02 03:50:00,
2013-12-01 22:56:00,57.2,55.8,30.02,NE,45,0.0,0.0,95,0.00,,,0.00,Wunderground v.1.15,2013-12-02 03:56:00,
2013-12-01 23:05:00,56.8,55.4,30.02,NE,44,0.0,0.0,95,0.00,,,0.00,Wunderground v.1.15,2013-12-02 04:05:00,
2013-12-01 23:10:00,56.6,55.2,30.02,NE,45,0.0,0.0,95,0.00,,,0.00,Wunderground v.1.15,2013-12-02 04:10:00,
2013-12-01 23:20:00,56.3,54.9,30.02,NE,45,0.0,0.0,95,0.00,,,0.00,Wunderground v.1.15,2013-12-02 04:20:00,
2013-12-01 23:25:00,56.3,54.9,30.01,NE,45,0.0,0.0,95,0.00,,,0.00,Wunderground v.1.15,2013-12-02 04:25:00,
2013-12-01 23:30:00,56.5,55.1,30.01,NE,44,0.0,0.0,95,0.00,,,0.00,Wunderground v.1.15,2013-12-02 04:30:00,
2013-12-01 23:35:00,56.5,55.1,30.01,NE,45,0.0,0.0,95,0.00,,,0.00,Wunderground v.1.15,2013-12-02 04:35:00,
2013-12-01 23:45:00,56.3,54.9,30.01,NE,44,0.0,1.0,95,0.00,,,0.00,Wunderground v.1.15,2013-12-02 04:45:00,
2013-12-01 23:50:00,56.3,54.9,30.01,NE,44,0.0,0.0,95,0.00,,,0.00,Wunderground v.1.15,2013-12-02 04:50:00,
2013-12-01 23:55:00,56.5,55.1,30.01,NE,44,0.0,0.0,95,0.00,,,0.00,Wunderground v.1.15,2013-12-02 04:55:00,